| time (UTC) | temp F | wind direction | speed MPH | gust MPH | rain 1hr in | rain 24hr in | rain mn in | humidity % | barometer mb |
| 20260503222009 | 79 | 145 | 12.0 | 16.0 | 0.00 | 0.00 | 0.00 | 45 | 1017.4 |
| 20260503221508 | 79 | 153 | 10.0 | 16.0 | 0.00 | 0.00 | 0.00 | 45 | 1017.4 |
| 20260503221008 | 79 | 137 | 12.0 | 17.0 | 0.00 | 0.00 | 0.00 | 46 | 1017.2 |
| 20260503220509 | 79 | 146 | 12.0 | 16.0 | 0.00 | 0.00 | 0.00 | 46 | 1017.2 |
| 20260503220009 | 80 | 140 | 12.0 | 18.0 | 0.00 | 0.00 | 0.00 | 45 | 1017.2 |
| 20260503215509 | 79 | 141 | 10.0 | 16.0 | 0.00 | 0.00 | 0.00 | 45 | 1017.3 |
| 20260503215009 | 80 | 143 | 9.0 | 14.0 | 0.00 | 0.00 | 0.00 | 44 | 1017.6 |
| 20260503214508 | 80 | 127 | 9.0 | 15.0 | 0.00 | 0.00 | 0.00 | 45 | 1017.6 |
| 20260503214008 | 80 | 135 | 10.0 | 13.0 | 0.00 | 0.00 | 0.00 | 45 | 1017.8 |
| 20260503213509 | 80 | 181 | 9.0 | 16.0 | 0.00 | 0.00 | 0.00 | 45 | 1017.8 |
| 20260503213009 | 80 | 167 | 7.0 | 17.0 | 0.00 | 0.00 | 0.00 | 47 | 1017.9 |
| 20260503212509 | 80 | 149 | 9.0 | 15.0 | 0.00 | 0.00 | 0.00 | 47 | 1018.0 |
| 20260503212008 | 80 | 151 | 11.0 | 17.0 | 0.00 | 0.00 | 0.00 | 48 | 1018.1 |
| 20260503211509 | 80 | 153 | 9.0 | 14.0 | 0.00 | 0.00 | 0.00 | 46 | 1018.4 |
| 20260503211008 | 81 | 141 | 8.0 | 14.0 | 0.00 | 0.00 | 0.00 | 45 | 1018.4 |
| 20260503210509 | 81 | 167 | 8.0 | 14.0 | 0.00 | 0.00 | 0.00 | 47 | 1018.5 |
| 20260503210009 | 80 | 134 | 10.0 | 20.0 | 0.00 | 0.00 | 0.00 | 44 | 1018.5 |
| 20260503205509 | 80 | 188 | 6.0 | 10.0 | 0.00 | 0.00 | 0.00 | 47 | 1018.6 |
| 20260503205009 | 79 | 164 | 7.0 | 17.0 | 0.00 | 0.00 | 0.00 | 47 | 1018.7 |
| 20260503204509 | 79 | 136 | 10.0 | 17.0 | 0.00 | 0.00 | 0.00 | 48 | 1018.7 |
| 20260503204009 | 79 | 137 | 10.0 | 18.0 | 0.00 | 0.00 | 0.00 | 48 | 1018.7 |
| 20260503203010 | 80 | 141 | 10.0 | 15.0 | 0.00 | 0.00 | 0.00 | 45 | 1018.9 |
| 20260503202509 | 80 | 192 | 3.0 | 10.0 | 0.00 | 0.00 | 0.00 | 43 | 1018.9 |
| 20260503202008 | 80 | 143 | 10.0 | 15.0 | 0.00 | 0.00 | 0.00 | 42 | 1019.0 |
| 20260503201509 | 80 | 150 | 8.0 | 14.0 | 0.00 | 0.00 | 0.00 | 45 | 1019.1 |
| 20260503201008 | 80 | 155 | 10.0 | 14.0 | 0.00 | 0.00 | 0.00 | 45 | 1019.2 |
| 20260503200509 | 80 | 154 | 10.0 | 16.0 | 0.00 | 0.00 | 0.00 | 43 | 1019.2 |
| 20260503195508 | 80 | 125 | 6.0 | 15.0 | 0.00 | 0.00 | 0.00 | 42 | 1019.3 |
| 20260503195008 | 80 | 147 | 9.0 | 14.0 | 0.00 | 0.00 | 0.00 | 43 | 1019.4 |
| 20260503194009 | 80 | 134 | 9.0 | 14.0 | 0.00 | 0.00 | 0.00 | 44 | 1019.6 |
| 20260503193509 | 80 | 136 | 3.0 | 10.0 | 0.00 | 0.00 | 0.00 | 44 | 1019.7 |
| 20260503193009 | 80 | 136 | 4.0 | 12.0 | 0.00 | 0.00 | 0.00 | 42 | 1019.8 |
| 20260503192508 | 80 | 127 | 9.0 | 13.0 | 0.00 | 0.00 | 0.00 | 44 | 1019.9 |
| 20260503192008 | 79 | 139 | 6.0 | 13.0 | 0.00 | 0.00 | 0.00 | 45 | 1020.0 |
| 20260503191509 | 79 | 121 | 6.0 | 12.0 | 0.00 | 0.00 | 0.00 | 46 | 1020.0 |
| 20260503191008 | 79 | 127 | 6.0 | 13.0 | 0.00 | 0.00 | 0.00 | 43 | 1020.0 |
| 20260503190508 | 79 | 87 | 5.0 | 9.0 | 0.00 | 0.00 | 0.00 | 42 | 1020.1 |
| 20260503190009 | 79 | 129 | 9.0 | 14.0 | 0.00 | 0.00 | 0.00 | 43 | 1020.3 |
| 20260503185508 | 80 | 144 | 6.0 | 13.0 | 0.00 | 0.00 | 0.00 | 43 | 1020.4 |
| 20260503184009 | 80 | 146 | 9.0 | 14.0 | 0.00 | 0.00 | 0.00 | 45 | 1020.5 |
| 20260503183508 | 80 | 154 | 9.0 | 13.0 | 0.00 | 0.00 | 0.00 | 42 | 1020.5 |
| 20260503183008 | 79 | 198 | 3.0 | 9.0 | 0.00 | 0.00 | 0.00 | 44 | 1020.7 |
| 20260503182508 | 79 | 183 | 7.0 | 12.0 | 0.00 | 0.00 | 0.00 | 43 | 1020.7 |
| 20260503182008 | 79 | 142 | 7.0 | 12.0 | 0.00 | 0.00 | 0.00 | 44 | 1020.8 |
| 20260503181508 | 79 | 149 | 7.0 | 13.0 | 0.00 | 0.00 | 0.00 | 42 | 1020.8 |
| 20260503181008 | 79 | 166 | 6.0 | 10.0 | 0.00 | 0.00 | 0.00 | 43 | 1020.9 |
| 20260503180508 | 79 | 170 | 7.0 | 15.0 | 0.00 | 0.00 | 0.00 | 46 | 1020.9 |
| 20260503180008 | 78 | 177 | 6.0 | 10.0 | 0.00 | 0.00 | 0.00 | 46 | 1021.1 |
| 20260503175009 | 78 | 43 | 6.0 | 16.0 | 0.00 | 0.00 | 0.00 | 45 | 1021.1 |
| 20260503174509 | 78 | 141 | 3.0 | 6.0 | 0.00 | 0.00 | 0.00 | 46 | 1021.2 |
| 20260503174009 | 79 | 104 | 5.0 | 13.0 | 0.00 | 0.00 | 0.00 | 45 | 1021.3 |
| 20260503172508 | 78 | 185 | 5.0 | 8.0 | 0.00 | 0.00 | 0.00 | 47 | 1021.4 |
| 20260503172008 | 78 | 121 | 2.0 | 8.0 | 0.00 | 0.00 | 0.00 | 44 | 1021.5 |
| 20260503171508 | 78 | 154 | 6.0 | 12.0 | 0.00 | 0.00 | 0.00 | 46 | 1021.5 |
| 20260503170508 | 77 | 158 | 5.0 | 12.0 | 0.00 | 0.00 | 0.00 | 47 | 1021.5 |
| 20260503151009 | 73 | 75 | 1.0 | 5.0 | 0.00 | 0.00 | 0.00 | 57 | 1022.2 |
| 20260503150508 | 72 | 63 | 3.0 | 7.0 | 0.00 | 0.00 | 0.00 | 60 | 1022.2 |
| 20260503131008 | 61 | 324 | 2.0 | 5.0 | 0.00 | 0.00 | 0.00 | 84 | 1021.9 |
| 20260503130510 | 61 | 312 | 3.0 | 5.0 | 0.00 | 0.00 | 0.00 | 84 | 1021.8 |
| 20260503110507 | 58 | 271 | 0.0 | 2.0 | 0.00 | 0.00 | 0.00 | 88 | 1020.4 |
| 20260503090508 | 61 | 109 | 0.0 | 0.0 | 0.00 | 0.01 | 0.00 | 81 | 1020.3 |
| 20260503081507 | 62 | 55 | 2.0 | 2.0 | 0.00 | 0.01 | 0.00 | 76 | 1020.5 |
| 20260503081008 | 62 | 58 | 1.0 | 2.0 | 0.00 | 0.01 | 0.00 | 76 | 1020.5 |
| 20260503080507 | 62 | 47 | 2.0 | 3.0 | 0.00 | 0.01 | 0.00 | 77 | 1020.5 |
| 20260503072507 | 63 | 52 | 1.0 | 2.0 | 0.00 | 0.01 | 0.00 | 75 | 1020.8 |
| 20260503072008 | 63 | 54 | 2.0 | 3.0 | 0.00 | 0.01 | 0.00 | 75 | 1020.8 |
| 20260503071508 | 63 | 58 | 2.0 | 3.0 | 0.00 | 0.01 | 0.00 | 75 | 1020.7 |
| 20260503071008 | 63 | 46 | 2.0 | 3.0 | 0.00 | 0.01 | 0.00 | 75 | 1020.9 |
| 20260503070507 | 63 | 63 | 2.0 | 3.0 | 0.00 | 0.01 | 0.00 | 75 | 1020.8 |
| 20260503055008 | 64 | 47 | 3.0 | 5.0 | 0.00 | 0.01 | 0.00 | 74 | 1020.7 |
| 20260503054508 | 63 | 51 | 3.0 | 5.0 | 0.00 | 0.01 | 0.00 | 74 | 1020.6 |
| 20260503054007 | 63 | 56 | 2.0 | 3.0 | 0.00 | 0.01 | 0.00 | 74 | 1020.7 |
| 20260503053509 | 63 | 62 | 2.0 | 5.0 | 0.00 | 0.01 | 0.00 | 74 | 1020.7 |
| 20260503053008 | 63 | 46 | 3.0 | 5.0 | 0.00 | 0.01 | 0.00 | 75 | 1020.7 |
| 20260503052507 | 63 | 40 | 3.0 | 5.0 | 0.00 | 0.01 | 0.00 | 75 | 1020.7 |
| 20260503052008 | 63 | 37 | 3.0 | 5.0 | 0.00 | 0.01 | 0.00 | 75 | 1020.7 |
| 20260503051508 | 63 | 39 | 3.0 | 5.0 | 0.00 | 0.01 | 0.00 | 75 | 1020.7 |
| 20260503050508 | 64 | 32 | 4.0 | 6.0 | 0.00 | 0.01 | 0.00 | 74 | 1020.5 |
| 20260503050008 | 64 | 35 | 3.0 | 6.0 | 0.00 | 0.01 | 0.00 | 74 | 1020.4 |
| 20260503045507 | 64 | 36 | 3.0 | 6.0 | 0.00 | 0.01 | 0.01 | 74 | 1020.4 |
| 20260503044507 | 63 | 41 | 3.0 | 5.0 | 0.00 | 0.01 | 0.01 | 74 | 1020.6 |
| 20260503044008 | 63 | 38 | 4.0 | 5.0 | 0.00 | 0.01 | 0.01 | 75 | 1020.6 |
| 20260503043507 | 63 | 34 | 3.0 | 5.0 | 0.00 | 0.01 | 0.01 | 76 | 1020.6 |
| 20260503043007 | 64 | 29 | 3.0 | 5.0 | 0.00 | 0.01 | 0.01 | 75 | 1020.6 |
| 20260503042507 | 64 | 31 | 3.0 | 5.0 | 0.00 | 0.01 | 0.01 | 75 | 1020.7 |
| 20260503042008 | 64 | 30 | 3.0 | 3.0 | 0.00 | 0.01 | 0.01 | 74 | 1020.6 |
| 20260503041009 | 64 | 40 | 3.0 | 5.0 | 0.00 | 0.01 | 0.01 | 72 | 1020.5 |
| 20260503040008 | 65 | 39 | 3.0 | 5.0 | 0.00 | 0.01 | 0.01 | 71 | 1020.4 |
| 20260503035508 | 65 | 48 | 3.0 | 5.0 | 0.00 | 0.01 | 0.01 | 70 | 1020.4 |
| 20260503035008 | 65 | 45 | 3.0 | 6.0 | 0.00 | 0.01 | 0.01 | 70 | 1020.4 |
| 20260503034507 | 65 | 51 | 3.0 | 6.0 | 0.00 | 0.01 | 0.01 | 70 | 1020.5 |
| 20260503034008 | 65 | 74 | 4.0 | 7.0 | 0.00 | 0.01 | 0.01 | 69 | 1020.5 |
| 20260503033508 | 65 | 50 | 4.0 | 7.0 | 0.00 | 0.01 | 0.01 | 69 | 1020.3 |
| 20260503033009 | 65 | 34 | 5.0 | 6.0 | 0.00 | 0.01 | 0.01 | 70 | 1020.3 |
| 20260503032508 | 65 | 23 | 5.0 | 6.0 | 0.00 | 0.01 | 0.01 | 70 | 1020.2 |
| 20260503032008 | 66 | 27 | 5.0 | 6.0 | 0.00 | 0.01 | 0.01 | 69 | 1020.2 |
| 20260503031507 | 65 | 24 | 4.0 | 6.0 | 0.00 | 0.01 | 0.01 | 69 | 1020.3 |
| 20260503031007 | 65 | 28 | 5.0 | 6.0 | 0.00 | 0.01 | 0.01 | 69 | 1020.2 |
| 20260503030507 | 66 | 31 | 4.0 | 6.0 | 0.00 | 0.01 | 0.01 | 69 | 1020.1 |
| 20260503030007 | 66 | 24 | 3.0 | 5.0 | 0.00 | 0.01 | 0.01 | 69 | 1020.1 |
| 20260503025507 | 66 | 23 | 3.0 | 5.0 | 0.00 | 0.01 | 0.01 | 69 | 1020.0 |
| 20260503025009 | 66 | 22 | 3.0 | 6.0 | 0.00 | 0.01 | 0.01 | 69 | 1020.0 |
| 20260503024507 | 66 | 20 | 4.0 | 6.0 | 0.00 | 0.01 | 0.01 | 69 | 1019.8 |
| 20260503024007 | 66 | 21 | 5.0 | 6.0 | 0.00 | 0.01 | 0.01 | 68 | 1019.7 |
| 20260503023508 | 66 | 20 | 3.0 | 5.0 | 0.00 | 0.01 | 0.01 | 68 | 1019.7 |
| 20260503023009 | 66 | 22 | 4.0 | 5.0 | 0.00 | 0.01 | 0.01 | 67 | 1019.5 |
| 20260503022507 | 67 | 22 | 4.0 | 5.0 | 0.00 | 0.01 | 0.01 | 67 | 1019.5 |
| 20260503022008 | 67 | 29 | 5.0 | 6.0 | 0.00 | 0.01 | 0.01 | 66 | 1019.4 |
| 20260503021508 | 67 | 24 | 5.0 | 6.0 | 0.00 | 0.01 | 0.01 | 66 | 1019.4 |
| 20260503021007 | 67 | 20 | 5.0 | 5.0 | 0.00 | 0.01 | 0.01 | 66 | 1019.3 |
| 20260503020508 | 67 | 16 | 5.0 | 6.0 | 0.00 | 0.01 | 0.01 | 65 | 1019.3 |
| 20260503020008 | 67 | 17 | 5.0 | 6.0 | 0.00 | 0.01 | 0.01 | 64 | 1019.2 |
| 20260503015507 | 68 | 13 | 5.0 | 6.0 | 0.00 | 0.01 | 0.01 | 63 | 1019.2 |
| 20260503015007 | 68 | 17 | 5.0 | 5.0 | 0.00 | 0.01 | 0.01 | 62 | 1019.1 |
| 20260503014507 | 68 | 9 | 5.0 | 6.0 | 0.00 | 0.01 | 0.01 | 62 | 1019.0 |
| 20260503014008 | 69 | 14 | 4.0 | 5.0 | 0.00 | 0.01 | 0.01 | 61 | 1018.9 |
| 20260503013508 | 69 | 20 | 3.0 | 5.0 | 0.00 | 0.01 | 0.01 | 60 | 1018.8 |
| 20260503013007 | 70 | 16 | 5.0 | 5.0 | 0.00 | 0.01 | 0.01 | 58 | 1018.8 |
| 20260503012507 | 70 | 17 | 3.0 | 6.0 | 0.00 | 0.01 | 0.01 | 57 | 1018.8 |
| 20260503011508 | 71 | 23 | 5.0 | 6.0 | 0.00 | 0.01 | 0.01 | 54 | 1018.8 |
| 20260503011008 | 72 | 29 | 5.0 | 7.0 | 0.00 | 0.01 | 0.01 | 53 | 1018.7 |
| 20260503010508 | 72 | 23 | 6.0 | 8.0 | 0.00 | 0.01 | 0.01 | 52 | 1018.7 |
| 20260503010007 | 73 | 26 | 5.0 | 7.0 | 0.00 | 0.01 | 0.01 | 50 | 1018.6 |
| 20260503005507 | 73 | 27 | 6.0 | 9.0 | 0.00 | 0.01 | 0.01 | 49 | 1018.6 |
| 20260503005008 | 73 | 25 | 6.0 | 9.0 | 0.00 | 0.01 | 0.01 | 49 | 1018.6 |
| 20260503004507 | 74 | 39 | 7.0 | 9.0 | 0.00 | 0.01 | 0.01 | 48 | 1018.6 |
| 20260503004007 | 74 | 39 | 7.0 | 9.0 | 0.00 | 0.01 | 0.01 | 47 | 1018.5 |
| 20260503003508 | 74 | 30 | 7.0 | 10.0 | 0.00 | 0.01 | 0.01 | 46 | 1018.4 |
| 20260503002507 | 74 | 32 | 8.0 | 12.0 | 0.00 | 0.01 | 0.01 | 46 | 1018.4 |
| 20260503002007 | 75 | 21 | 7.0 | 10.0 | 0.00 | 0.01 | 0.01 | 46 | 1018.3 |
| 20260503001508 | 75 | 17 | 6.0 | 8.0 | 0.00 | 0.01 | 0.01 | 45 | 1018.3 |
| 20260503001007 | 75 | 45 | 7.0 | 13.0 | 0.00 | 0.01 | 0.01 | 44 | 1018.4 |
| 20260503000507 | 75 | 18 | 8.0 | 12.0 | 0.00 | 0.01 | 0.01 | 44 | 1018.4 |
| 20260503000007 | 75 | 36 | 5.0 | 9.0 | 0.00 | 0.01 | 0.01 | 45 | 1018.4 |
| 20260502235507 | 75 | 42 | 6.0 | 12.0 | 0.00 | 0.01 | 0.01 | 46 | 1018.4 |
| 20260502235007 | 75 | 14 | 7.0 | 10.0 | 0.00 | 0.01 | 0.01 | 45 | 1018.3 |
| 20260502234507 | 76 | 35 | 7.0 | 10.0 | 0.00 | 0.01 | 0.01 | 44 | 1018.3 |
| 20260502234007 | 76 | 37 | 7.0 | 10.0 | 0.00 | 0.01 | 0.01 | 44 | 1018.3 |
| 20260502233507 | 76 | 15 | 5.0 | 8.0 | 0.00 | 0.01 | 0.01 | 47 | 1018.3 |
| 20260502233007 | 76 | 9 | 7.0 | 12.0 | 0.00 | 0.01 | 0.01 | 46 | 1018.2 |
| 20260502232507 | 76 | 11 | 9.0 | 15.0 | 0.00 | 0.01 | 0.01 | 46 | 1018.2 |
| 20260502232007 | 76 | 31 | 5.0 | 13.0 | 0.00 | 0.01 | 0.01 | 46 | 1018.2 |
| 20260502231507 | 76 | 57 | 7.0 | 10.0 | 0.00 | 0.01 | 0.01 | 45 | 1018.1 |
| 20260502231007 | 76 | 50 | 8.0 | 10.0 | 0.00 | 0.01 | 0.01 | 46 | 1018.0 |
| 20260502230007 | 76 | 65 | 6.0 | 9.0 | 0.00 | 0.01 | 0.01 | 46 | 1017.9 |
| 20260502225507 | 76 | 24 | 8.0 | 13.0 | 0.00 | 0.02 | 0.01 | 47 | 1018.0 |
| 20260502225008 | 76 | 8 | 7.0 | 13.0 | 0.00 | 0.05 | 0.01 | 46 | 1018.0 |
| 20260502224508 | 76 | 33 | 11.0 | 15.0 | 0.00 | 0.06 | 0.01 | 45 | 1018.0 |
| 20260502224008 | 76 | 41 | 9.0 | 14.0 | 0.00 | 0.06 | 0.01 | 46 | 1018.1 |
| 20260502223508 | 76 | 33 | 7.0 | 12.0 | 0.00 | 0.06 | 0.01 | 44 | 1018.0 |
| 20260502223008 | 76 | 49 | 7.0 | 16.0 | 0.00 | 0.06 | 0.01 | 44 | 1018.1 |
| 20260502222507 | 76 | 39 | 9.0 | 15.0 | 0.00 | 0.06 | 0.01 | 44 | 1018.0 |